Overview Statistics Trail Chart Weather Telemetry Raw packets
 

This is the latest recevied weather packets stored in our database for station/object N7ZEF. If no packets are shown the sender has not sent any weather packets the latest 10 day(s).

<< 2 3 4 5 6 7 8 >>
Time Temp. Humidity Pressure Rain* Wind** Luminosity Snow
1778118104 7.78° C 45% 1018.9 hPa 0 mm - - -
1778117503 8.33° C 41% 1018.9 hPa 0 mm - - -
1778116902 8.89° C 39% 1018.9 hPa 0 mm - - -
1778116303 9.44° C 37% 1018.9 hPa 0 mm - - -
1778115712 9.44° C 38% 1018.8 hPa 0 mm - - -
1778115097 9.44° C 34% 1018.8 hPa 0 mm - - -
1778114496 9.44° C 35% 1018.8 hPa 0 mm - - -
1778113895 9.44° C 37% 1018.9 hPa 0 mm - - -
1778113293 9.44° C 34% 1019 hPa 0 mm - - -
1778112692 9.44° C 35% 1019 hPa 0 mm - - -
1778112094 9.44° C 36% 1019 hPa 0 mm - - -
1778111490 9.44° C 37% 1019.3 hPa 0 mm - - -
1778110891 9.44° C 39% 1019.3 hPa 0 mm - - -
1778109687 9.44° C 39% 1019.3 hPa 0 mm - - -
1778109084 8.89° C 39% 1019.3 hPa 0 mm - - -
1778108485 8.89° C 40% 1019.3 hPa 0 mm - - -
1778107881 8.89° C 41% 1019.4 hPa 0 mm - - -
1778107280 8.33° C 41% 1019.6 hPa 0 mm - - -
1778106678 8.33° C 40% 1019.7 hPa 0 mm - - -
1778106078 8.33° C 42% 1019.9 hPa 0 mm - - -
1778105477 8.33° C 45% 1020.1 hPa 0 mm - - -
1778104876 8.33° C 45% 1020.3 hPa 0 mm - - -
1778103671 7.78° C 43% 1020.4 hPa 0 mm - - -
1778103081 7.22° C 42% 1020.7 hPa 0 mm - - -
1778102469 7.78° C 41% 1020.7 hPa 0 mm - - -

* Rain latest hour (hover to see other rain measurements)
** Current wind speed in m/s (hover to see current wind gust speed)